Total_Precipitation_Accumulation
0.22 0.27 0.35 0.41 0.35 0.22 0.07 0.01 0.00 0.01 0.01 0.03 0.02 0.01 0.01 0.02 0.03 0.05 0.04 0.03 0.05 0.08 0.14 0.29 0.42 0.53 0.59 0.62 0.63 0.62 0.62 0.63 0.70 0.73 0.76 0.81 0.84 0.88 0.98 1.04 1.04 1.05 1.10 1.13 1.15 1.13 1.09 1.03 0.95
0.23 0.34 0.45 0.51 0.31 0.13 0.04 0.01 0.01 0.01 0.02 0.03 0.02 0.01 0.01 0.02 0.02 0.04 0.04 0.04 0.04 0.06 0.12 0.24 0.41 0.55 0.62 0.63 0.63 0.63 0.63 0.66 0.73 0.78 0.81 0.85 0.88 0.91 0.98 1.02 1.06 1.03 1.04 1.13 1.12 1.11 1.12 1.08 1.02
0.35 0.48 0.53 0.53 0.31 0.09 0.02 0.01 0.01 0.02 0.03 0.03 0.02 0.02 0.02 0.03 0.03 0.04 0.04 0.05 0.06 0.08 0.12 0.25 0.43 0.57 0.69 0.70 0.68 0.69 0.72 0.75 0.81 0.84 0.91 0.94 0.97 0.98 1.00 0.98 0.99 0.98 0.95 0.98 0.98 1.03 1.11 1.11 1.03
0.52 0.68 0.65 0.50 0.22 0.08 0.02 0.01 0.01 0.02 0.03 0.03 0.02 0.02 0.03 0.03 0.03 0.05 0.05 0.06 0.09 0.12 0.17 0.29 0.48 0.64 0.75 0.78 0.75 0.75 0.81 0.86 0.91 0.96 1.01 1.06 1.13 1.11 1.08 1.03 1.02 0.96 0.94 0.95 0.96 1.01 1.08 1.07 1.00
0.68 0.79 0.70 0.44 0.15 0.05 0.02 0.01 0.02 0.02 0.02 0.03 0.02 0.03 0.03 0.03 0.03 0.06 0.09 0.10 0.13 0.18 0.27 0.37 0.57 0.76 0.86 0.90 0.88 0.86 0.92 0.96 0.99 1.02 1.09 1.16 1.20 1.20 1.13 1.07 1.03 1.02 1.00 0.98 0.98 1.02 1.08 1.05 0.97
0.84 0.85 0.61 0.31 0.11 0.03 0.02 0.01 0.02 0.03 0.03 0.03 0.03 0.04 0.05 0.06 0.06 0.09 0.11 0.12 0.15 0.22 0.33 0.47 0.74 0.86 0.92 1.00 1.02 0.99 1.04 1.10 1.11 1.14 1.21 1.27 1.26 1.23 1.23 1.13 1.04 1.07 1.08 1.01 1.00 1.03 1.06 1.00 0.95
0.89 0.77 0.46 0.22 0.10 0.05 0.04 0.03 0.04 0.04 0.04 0.04 0.04 0.05 0.07 0.10 0.11 0.13 0.15 0.18 0.24 0.33 0.45 0.56 0.77 0.91 1.02 1.13 1.18 1.16 1.20 1.24 1.21 1.26 1.32 1.36 1.34 1.30 1.28 1.20 1.09 1.09 1.09 1.13 1.09 1.03 0.98 0.94 0.90
0.92 0.85 0.47 0.25 0.14 0.09 0.06 0.06 0.05 0.05 0.05 0.06 0.07 0.08 0.08 0.11 0.13 0.19 0.24 0.31 0.38 0.45 0.56 0.69 0.83 0.96 1.07 1.21 1.30 1.35 1.38 1.41 1.43 1.43 1.36 1.36 1.44 1.47 1.43 1.28 1.19 1.14 1.13 1.16 1.18 1.11 1.00 0.93 0.90
1.03 1.04 0.55 0.25 0.18 0.13 0.09 0.10 0.06 0.06 0.07 0.09 0.09 0.07 0.10 0.14 0.19 0.29 0.39 0.48 0.56 0.62 0.70 0.87 0.97 1.06 1.16 1.25 1.33 1.54 1.68 1.72 1.70 1.66 1.51 1.53 1.54 1.53 1.48 1.32 1.23 1.15 1.16 1.14 1.21 1.24 1.15 1.03 0.95
1.14 0.90 0.46 0.23 0.20 0.17 0.14 0.13 0.10 0.11 0.13 0.13 0.12 0.11 0.16 0.23 0.29 0.35 0.40 0.47 0.58 0.63 0.76 0.93 1.12 1.21 1.34 1.38 1.47 1.65 1.78 1.86 1.84 1.60 1.58 1.64 1.52 1.49 1.44 1.44 1.42 1.29 1.25 1.23 1.22 1.26 1.24 1.12 0.95
0.93 0.63 0.33 0.24 0.21 0.23 0.21 0.18 0.15 0.16 0.16 0.14 0.16 0.17 0.22 0.31 0.36 0.41 0.45 0.50 0.59 0.66 0.79 0.96 1.20 1.40 1.50 1.48 1.46 1.55 1.66 1.77 1.83 1.62 1.48 1.51 1.57 1.60 1.62 1.50 1.52 1.48 1.40 1.40 1.32 1.29 1.19 1.06 0.98
0.70 0.45 0.32 0.30 0.27 0.30 0.29 0.24 0.22 0.16 0.14 0.16 0.20 0.22 0.27 0.35 0.41 0.45 0.49 0.51 0.62 0.76 0.88 1.05 1.23 1.45 1.59 1.64 1.58 1.56 1.60 1.65 1.70 1.67 1.61 1.53 1.55 1.52 1.45 1.42 1.33 1.31 1.25 1.26 1.26 1.17 1.08 1.00 0.94
0.57 0.42 0.33 0.31 0.33 0.36 0.36 0.32 0.25 0.16 0.12 0.19 0.25 0.28 0.32 0.36 0.46 0.55 0.59 0.60 0.66 0.80 0.93 1.17 1.34 1.49 1.68 1.80 1.77 1.73 1.71 1.56 1.64 1.74 1.81 1.69 1.54 1.46 1.42 1.36 1.33 1.28 1.21 1.17 1.14 1.05 0.99 0.93 0.89
0.49 0.44 0.37 0.32 0.33 0.39 0.44 0.41 0.34 0.21 0.17 0.26 0.32 0.35 0.39 0.41 0.51 0.62 0.70 0.69 0.69 0.81 0.96 1.24 1.45 1.55 1.74 1.82 1.80 1.79 1.83 1.72 1.74 1.78 1.77 1.83 1.76 1.59 1.55 1.50 1.37 1.30 1.25 1.18 1.17 1.10 1.03 0.96 0.88
0.50 0.59 0.49 0.37 0.34 0.38 0.50 0.55 0.38 0.24 0.24 0.33 0.38 0.41 0.46 0.49 0.57 0.66 0.75 0.78 0.75 0.84 1.00 1.26 1.49 1.67 1.80 1.80 1.86 1.88 1.89 1.91 1.83 1.82 1.83 1.87 1.84 1.79 1.70 1.67 1.57 1.41 1.35 1.32 1.27 1.25 1.18 1.10 0.98
0.76 0.93 0.78 0.46 0.37 0.43 0.62 0.60 0.30 0.25 0.32 0.35 0.43 0.44 0.49 0.50 0.56 0.69 0.84 0.95 0.92 0.95 1.03 1.22 1.49 1.67 1.81 1.87 1.90 1.90 1.97 1.99 1.98 1.99 1.96 1.92 1.96 1.96 1.95 1.82 1.71 1.52 1.50 1.48 1.42 1.35 1.32 1.21 1.08
1.11 1.05 0.73 0.49 0.40 0.50 0.66 0.52 0.28 0.27 0.37 0.41 0.47 0.49 0.50 0.55 0.57 0.68 0.86 1.01 1.03 1.03 1.11 1.26 1.46 1.62 1.78 1.98 2.07 1.98 2.00 2.09 2.12 2.09 2.14 2.02 2.02 2.08 2.13 2.13 1.98 1.80 1.71 1.61 1.52 1.41 1.35 1.29 1.21
0.98 0.75 0.56 0.47 0.45 0.51 0.58 0.45 0.31 0.29 0.38 0.44 0.50 0.52 0.49 0.58 0.56 0.62 0.79 1.02 1.10 1.14 1.20 1.30 1.45 1.64 1.81 2.11 2.27 2.31 2.19 2.18 2.17 2.10 2.04 2.05 2.04 2.06 2.09 2.15 2.21 2.14 2.03 1.89 1.74 1.61 1.44 1.33 1.28
0.63 0.68 0.58 0.40 0.38 0.51 0.52 0.42 0.30 0.30 0.36 0.44 0.49 0.53 0.49 0.54 0.59 0.65 0.76 0.94 1.14 1.18 1.22 1.36 1.41 1.58 1.81 2.02 2.20 2.24 2.28 2.20 2.15 2.06 1.98 1.92 1.95 1.96 2.00 1.96 2.07 2.13 2.07 1.96 1.88 1.80 1.73 1.59 1.45
0.74 0.82 0.64 0.44 0.37 0.55 0.56 0.46 0.33 0.31 0.35 0.44 0.44 0.52 0.54 0.55 0.61 0.68 0.78 0.92 1.16 1.22 1.22 1.35 1.46 1.56 1.63 1.78 1.94 2.05 2.19 2.25 2.19 2.10 2.10 1.98 1.90 1.87 1.95 1.97 1.91 1.92 1.95 1.93 1.86 1.81 1.78 1.73 1.61
0.83 0.73 0.61 0.55 0.51 0.61 0.69 0.65 0.40 0.34 0.32 0.39 0.44 0.51 0.62 0.65 0.66 0.69 0.77 0.89 1.15 1.29 1.29 1.32 1.41 1.56 1.63 1.77 1.99 2.12 2.33 2.42 2.45 2.25 2.10 2.04 1.99 1.89 1.85 1.94 1.96 1.89 1.86 1.84 1.79 1.73 1.67 1.68 1.58
0.88 0.50 0.51 0.60 0.89 1.00 0.86 1.00 0.51 0.36 0.35 0.41 0.46 0.50 0.63 0.67 0.66 0.73 0.74 0.85 1.03 1.21 1.33 1.38 1.49 1.60 1.63 1.81 2.02 2.04 2.20 2.25 2.21 2.08 1.99 1.93 1.94 1.92 1.85 1.85 1.91 1.95 1.85 1.74 1.71 1.71 1.67 1.71 1.72
0.73 0.46 0.58 0.73 1.00 1.16 0.87 0.96 0.56 0.33 0.40 0.41 0.46 0.49 0.58 0.67 0.64 0.71 0.74 0.74 0.87 1.03 1.22 1.36 1.53 1.68 1.70 1.74 1.93 2.01 1.97 2.05 2.15 2.19 2.13 2.02 1.96 1.90 1.84 1.84 1.84 1.85 1.83 1.71 1.65 1.67 1.69 1.71 1.70
0.67 0.77 0.94 1.09 1.56 1.82 0.78 0.74 0.61 0.51 0.60 0.50 0.45 0.51 0.60 0.67 0.69 0.72 0.71 0.70 0.81 0.97 1.15 1.29 1.46 1.60 1.69 1.71 1.80 1.98 1.96 1.94 2.04 2.21 2.27 2.20 2.07 1.97 1.83 1.74 1.77 1.74 1.67 1.63 1.59 1.57 1.55 1.59 1.62
1.05 1.59 2.34 2.48 2.47 1.51 0.44 0.58 0.69 0.54 0.52 0.59 0.58 0.58 0.62 0.65 0.72 0.77 0.67 0.70 0.75 0.87 1.04 1.20 1.39 1.47 1.55 1.61 1.68 1.75 1.91 1.90 1.88 1.91 2.01 2.18 2.14 1.99 1.88 1.80 1.71 1.68 1.60 1.53 1.51 1.52 1.51 1.46 1.49
1.14 1.43 1.92 1.88 1.27 0.60 0.36 0.58 0.62 0.45 0.39 0.40 0.44 0.54 0.58 0.61 0.66 0.71 0.67 0.69 0.73 0.77 0.89 1.05 1.19 1.37 1.51 1.58 1.61 1.65 1.74 1.88 1.82 1.80 1.75 1.88 1.97 1.85 1.75 1.79 1.71 1.64 1.61 1.59 1.56 1.52 1.49 1.50 1.44
1.02 1.12 1.01 1.35 0.96 0.66 0.55 0.51 0.42 0.22 0.23 0.28 0.34 0.46 0.59 0.67 0.71 0.67 0.68 0.71 0.70 0.76 0.82 0.96 1.06 1.21 1.43 1.58 1.61 1.64 1.68 1.76 1.78 1.74 1.73 1.73 1.76 1.79 1.78 1.77 1.75 1.68 1.70 1.73 1.73 1.67 1.54 1.50 1.48
0.79 0.98 1.23 1.75 1.48 0.85 0.54 0.52 0.59 0.41 0.41 0.36 0.39 0.48 0.60 0.70 0.77 0.75 0.71 0.76 0.75 0.76 0.80 0.86 1.02 1.12 1.27 1.48 1.66 1.66 1.63 1.61 1.71 1.77 1.80 1.77 1.73 1.75 1.77 1.78 1.78 1.73 1.66 1.72 1.78 1.72 1.63 1.61 1.55
0.87 1.18 1.49 1.59 1.24 1.02 0.70 0.69 0.71 0.61 0.59 0.52 0.49 0.53 0.63 0.72 0.79 0.74 0.68 0.70 0.74 0.77 0.86 0.89 0.98 1.08 1.20 1.30 1.49 1.61 1.62 1.62 1.67 1.72 1.71 1.75 1.75 1.73 1.70 1.66 1.70 1.76 1.74 1.68 1.73 1.69 1.63 1.63 1.56
0.74 1.02 1.29 1.63 1.20 0.79 0.74 0.71 0.55 0.52 0.55 0.51 0.49 0.50 0.55 0.66 0.72 0.72 0.66 0.67 0.74 0.82 0.89 0.97 1.01 1.00 1.09 1.20 1.32 1.47 1.57 1.60 1.63 1.62 1.65 1.72 1.73 1.72 1.65 1.60 1.61 1.66 1.69 1.66 1.68 1.67 1.62 1.61 1.58